TimeEST,TemperatureF,Dew PointF,Humidity,Sea Level PressureIn,VisibilityMPH,Wind Direction,Wind SpeedMPH,Gust SpeedMPH,PrecipitationIn,Events,Conditions,WindDirDegrees,DateUTC
1:54 AM,46.9,44.1,90,30.00,4.0,Variable,4.6,-,N/A,,Clear,0,2013-01-30 06:54:00
2:54 AM,46.9,44.1,90,29.97,4.0,Variable,4.6,-,N/A,,Clear,0,2013-01-30 07:54:00
3:54 AM,46.9,45.0,93,29.94,3.0,South,4.6,-,N/A,,Clear,170,2013-01-30 08:54:00
4:54 AM,48.0,46.0,93,29.92,4.0,South,3.5,-,N/A,,Clear,170,2013-01-30 09:54:00
5:54 AM,48.9,46.0,90,29.91,4.0,Variable,3.5,-,N/A,,Clear,0,2013-01-30 10:54:00
6:54 AM,48.9,46.9,93,29.90,4.0,South,5.8,-,N/A,,Partly Cloudy,170,2013-01-30 11:54:00
7:54 AM,51.1,48.9,92,29.88,3.0,Variable,3.5,-,N/A,,Overcast,0,2013-01-30 12:54:00
8:54 AM,55.0,51.1,86,29.87,5.0,Variable,4.6,-,N/A,,Mostly Cloudy,0,2013-01-30 13:54:00
9:54 AM,59.0,53.1,81,29.86,8.0,SSW,9.2,-,N/A,,Mostly Cloudy,200,2013-01-30 14:54:00
10:04 AM,57.2,53.6,88,29.85,8.0,Variable,5.8,-,N/A,,Mostly Cloudy,0,2013-01-30 15:04:00
10:54 AM,60.1,55.0,83,29.83,9.0,SW,8.1,17.3,N/A,,Overcast,220,2013-01-30 15:54:00
11:54 AM,57.9,54.0,87,29.78,9.0,SSW,8.1,16.1,N/A,,Overcast,200,2013-01-30 16:54:00
12:54 PM,61.0,55.0,81,29.74,10.0,Variable,6.9,-,N/A,,Overcast,0,2013-01-30 17:54:00
1:37 PM,59.0,51.8,77,29.69,10.0,South,8.1,-,N/A,,Scattered Clouds,170,2013-01-30 18:37:00
1:54 PM,60.1,53.1,78,29.68,10.0,Variable,3.5,-,N/A,,Clear,0,2013-01-30 18:54:00
2:54 PM,57.0,51.1,81,29.69,10.0,South,4.6,-,N/A,,Clear,190,2013-01-30 19:54:00
3:54 PM,57.0,50.0,77,29.66,10.0,Variable,5.8,-,N/A,,Scattered Clouds,0,2013-01-30 20:54:00
4:54 PM,61.0,54.0,78,29.64,10.0,Variable,6.9,-,N/A,,Clear,0,2013-01-30 21:54:00
5:54 PM,62.1,54.0,75,29.63,10.0,South,8.1,-,N/A,,Clear,180,2013-01-30 22:54:00
6:54 PM,57.9,53.1,84,29.61,10.0,South,8.1,18.4,N/A,,Clear,190,2013-01-30 23:54:00
7:54 PM,57.0,53.1,87,29.57,10.0,South,12.7,20.7,N/A,,Clear,170,2013-01-31 00:54:00
8:54 PM,55.9,53.1,90,29.53,10.0,South,10.4,21.9,N/A,,Clear,170,2013-01-31 01:54:00
9:10 PM,55.4,53.6,94,29.52,10.0,South,12.7,21.9,N/A,,Partly Cloudy,170,2013-01-31 02:10:00
9:54 PM,57.0,53.1,87,29.48,10.0,Variable,6.9,20.7,N/A,,Overcast,0,2013-01-31 02:54:00
10:39 PM,57.2,53.6,88,29.46,10.0,South,9.2,23.0,N/A,,Overcast,170,2013-01-31 03:39:00
10:54 PM,57.0,54.0,89,29.44,10.0,South,8.1,20.7,N/A,,Overcast,170,2013-01-31 03:54:00
11:54 PM,57.9,55.0,90,29.39,10.0,Variable,6.9,25.3,0.00,,Overcast,0,2013-01-31 04:54:00